Regional Weather Roundup
Issued by NWS

Home | Current Version | Previous Version | Graphics & Text | Print | Product List | Glossary On
Versions: 1 2 3 4 5 6 7 8 9 10 11 12 13 14 15 16 17 18 19 20 21 22 23 24 25 26 27 28 29 30 31 32 33 34 35 36 37 38 39 40 41 42 43 44 45 46 47 48 49 50
000
ASUS45 KSLC 261010
RWRUT

UTAH REGIONAL WEATHER ROUNDUP
NATIONAL WEATHER SERVICE SALT LAKE CITY UT
400 AM MDT THU MAR 26 2015

UTZ001>011-023>025-261100-

NORTHERN UTAH

CITY           SKY/WX    TMP DP  RH WIND       PRES   REMARKS
BRIGHAM CITY   CLEAR     37  30  75 CALM      30.41S
HILL AFB       PTCLDY    37  20  50 E12       30.39F WCI  29
LOGAN          CLEAR     35  29  78 CALM      30.40R
OGDEN          PTCLDY    35  22  58 S7        30.39F WCI  29
PROVO AIRPORT  PTCLDY    34  23  64 SE5       30.40F WCI  30
SALT LAKE CITY CLEAR     37  21  52 SE5       30.39F WCI  33
VERNAL         CLEAR     30  14  51 NW5       30.32F WCI  25
WENDOVER       PTCLDY    39  19  45 CALM      30.40R
HEBER CITY     CLEAR     25  18  74 CALM      30.39F
WEST JORDAN    CLEAR     34  21  60 SW3       30.39F

$$

UTZ012>022-026-027-261100-

SOUTHERN/CENTRAL UTAH

CITY           SKY/WX    TMP DP  RH WIND       PRES   REMARKS
BLANDING       PTCLDY    32  14  46 NE5       30.35F WCI  28
BRYCE CANYON   CLEAR     26  14  60 NW7       30.38S WCI  18
CEDAR CITY     CLEAR     31   9  39 CALM      30.35F
DELTA          CLEAR     32  16  52 NE3       30.39R
HANKSVILLE     PTCLDY    32  12  43 CALM      30.33F
MILFORD        CLEAR     29   6  38 CALM      30.37S
MOAB/CYNLANDS  CLEAR     33   9  36 CALM      30.31R
PRICE          CLEAR     42  12  29 NW16      30.32S
ST GEORGE      SUNNY     55  12  18 SE6       30.29S
KANAB          PTCLDY    36  14  41 NW6       30.35S WCI  31

$$

REGIONAL REPORTS     COLORADO/ARIZONA

CITY           SKY/WX    TMP DP  RH WIND       PRES   REMARKS
CRAIG, CO      CLEAR     22  17  81 CALM      30.35F
GRAND JUNCTION CLEAR     28  15  58 CALM      30.34R
RIFLE          CLEAR     26  17  68 CALM      30.38R
MONTROSE       CLEAR     31  17  56 S7        30.37R WCI  24
CORTEZ         CLEAR     27  12  53 E8        30.28F WCI  19
PAGE, AZ       NOT AVBL
GRAND CANYON   PTCLDY    33  16  49 NE8       30.32S WCI  26
KINGMAN        CLEAR     50  16  25 N7        30.20S
FLAGSTAFF      PTCLDY    39  12  33 E13       30.30S WCI  31

$$

REGIONAL REPORTS    NEVADA/IDAHO/WYOMING

CITY           SKY/WX    TMP DP  RH WIND       PRES   REMARKS
LAS VEGAS, NV  PTCLDY    63  17  17 NE6       30.18S
ELY            CLEAR     24  15  68 S7        30.40S WCI  16
ELKO           CLEAR     35  27  72 NE5       30.41R WCI  31
POCATELLO, ID  CLEAR     40  31  70 SW13      30.39F WCI  32
BURLEY         PTCLDY    35  28  75 SW6       30.38F WCI  30
EVANSTON, WY   PTCLDY    26  17  68 SW9       30.39F WCI  17
ROCK SPRINGS   CLEAR     29  18  63 W20       30.32S WCI  16

$$



USA.gov is the U.S. government's official web portal to all federal, state and local government web resources and services.